Location: Molveno
(46.1500°N, 10.9667°E)
Time: 15:11:15
(UTC+00:00)

Cosmos 2237 Rocket - Pass Details

Date: 05 July 2020
Orbit: 834 x 850 km, 71.0° (Epoch: 10 August)

Event Time Altitude Azimuth Distance (km) Brightness Sun altitude
Exits shadow 20:32:50 14° 124° (SE) 2,215 3.8 -11.4°
Maximum altitude 20:35:00 17° 98° (E) 2,035 3.8 -11.6°
Drops below altitude 10° 20:38:29 10° 60° (ENE) 2,483 4.6 -12.0°
Sets 20:41:47 0° 41° (NE) 3,424 5.5 -12.3°
